Location: �clusier
(49.9361°N, 2.7869°E)
Time: 12:57:14
(UTC+00:00)

Cosmos 1331 Rocket - Visible Passes

Search period start: 23 October 2021 00:00
Search period end: 02 November 2021 00:00
Orbit: 750 x 777 km, 74.0° (Epoch: 23 October)

Date Brightness Start Highest point End Pass type
(mag) Time Alt. Az. Time Alt. Az. Time Alt. Az.
23 Oct 6.5 05:18:16 10° N 05:21:54 19° NE 05:25:33 10° E visible
24 Oct 6.6 04:40:33 10° N 04:43:00 13° NE 04:45:26 10° ENE visible
25 Oct 5.5 05:42:47 10° N 05:47:37 36° NE 05:52:27 10° ESE visible
26 Oct 6.1 05:04:39 10° N 05:08:55 24° NE 05:13:12 10° ESE visible
27 Oct 6.6 04:26:42 10° N 04:30:07 17° NE 04:33:31 10° E visible
28 Oct 6.8 03:49:09 10° NNE 03:51:10 12° NE 03:53:13 10° ENE visible
28 Oct 5.0 05:29:22 10° NNW 05:34:29 50° ENE 05:39:36 10° SE visible
29 Oct 5.7 04:51:09 10° N 04:55:53 33° NE 05:00:36 10° ESE visible
30 Oct 6.2 04:13:03 10° N 04:17:09 22° NE 04:21:15 10° E visible
30 Oct 4.0 05:54:26 10° NNW 05:59:42 74° WSW 06:04:57 10° SSE visible
31 Oct 6.7 03:35:10 10° N 03:38:18 16° NE 03:41:27 10° E visible
31 Oct 4.3 05:16:02 10° NNW 05:21:17 70° ENE 05:26:33 10° SSE visible
01 Nov 6.9 02:57:49 10° NNE 02:59:21 11° NE 03:00:51 10° NE visible
01 Nov 5.1 04:37:43 10° NNW 04:42:46 45° ENE 04:47:48 10° SE visible
